Location: ??????
(55.8274°N, 37.9338°E)
Time: 12:50:17
(UTC+00:00)

ALOS - Pass Details

Date: 14 April 2024
Orbit: 674 x 675 km, 98.0° (Epoch: 18 May)

Event Time Altitude Azimuth Distance (km) Brightness Sun altitude
Rises 01:38:12 0° 10° (N) 3,049 6.2 -6.9°
Reaches altitude 10° 01:40:37 10° 1° (N) 2,129 5.2 -6.6°
Maximum altitude 01:44:43 32° 299° (WNW) 1,168 3.2 -6.0°
Drops below altitude 10° 01:48:48 10° 237° (WSW) 2,114 4.1 -5.5°
Enters shadow 01:49:41 - 233° (SW) 2,441 4.5 -5.4°
